SCP
0 0 0 0 0 0 0 0 0 0 0 0 0 0 0 0 0 0 0 0 0 0 0 0 0 0 0 -0 0 0 0 1 1 1 1 0 0 0 0 0 0 0 0
0 0 0 0 0 0 0 0 0 0 0 0 0 0 0 0 0 0 0 0 1 1 1 0 0 0 0 0 0 0 0 0 1 1 1 1 0 0 0 0 0 0 0
0 0 0 0 0 0 0 0 0 0 0 0 0 0 0 0 0 0 0 0 0 0 1 1 1 1 0 0 0 0 0 0 1 1 1 1 1 1 0 0 0 0 0
0 0 0 0 0 0 0 0 0 0 0 0 0 0 0 0 0 0 0 0 0 0 1 1 1 0 0 0 0 0 0 0 0 1 1 1 1 1 1 1 1 0 0
0 0 0 0 0 0 0 0 0 0 0 0 0 0 0 0 0 0 0 0 0 0 0 0 0 0 0 0 0 -0 -0 0 0 0 1 1 1 1 1 1 1 1 0
0 0 0 0 0 0 0 0 0 0 0 0 0 0 0 0 0 0 0 0 0 0 0 0 0 0 0 0 0 0 0 0 0 0 1 1 1 1 1 1 1 0 0
0 0 0 0 0 0 0 0 0 0 0 0 0 0 0 0 0 0 0 0 0 0 0 0 0 0 0 0 0 0 0 0 0 0 0 0 1 1 1 1 1 1 1
0 0 0 0 0 0 0 0 0 0 0 0 0 0 0 0 0 0 0 0 0 0 0 0 0 0 0 0 0 0 0 0 0 0 0 0 1 1 1 1 1 1 1
0 0 0 0 0 0 0 0 0 0 0 0 0 0 0 0 0 0 0 0 0 0 0 0 0 0 0 0 0 0 0 0 0 0 0 0 1 1 0 1 1 1 1
0 0 0 0 0 0 0 0 0 0 0 0 0 0 0 0 0 0 0 0 0 0 0 0 0 0 0 0 0 0 0 0 0 0 0 0 0 1 0 0 1 1 1
0 0 0 0 0 0 0 0 0 0 0 0 0 0 0 0 0 0 0 0 0 0 0 0 0 0 0 0 0 0 0 0 0 0 0 0 0 0 0 0 0 1 0
0 0 0 0 0 0 0 0 0 0 0 0 0 0 0 0 0 0 0 0 0 0 0 0 0 0 0 0 0 0 0 0 0 0 0 0 0 0 0 0 0 0 0
0 0 0 0 0 0 0 0 0 0 0 0 0 0 0 0 0 0 0 0 0 -0 0 0 0 0 0 0 0 0 0 0 0 0 0 0 0 0 0 0 0 0 0
0 0 0 0 0 0 0 0 0 0 0 0 0 0 0 0 0 0 0 0 0 0 0 0 0 0 0 0 0 0 0 0 0 0 0 0 0 0 0 0 1 0 0
0 0 0 0 0 0 0 0 0 0 0 0 0 0 0 0 0 0 0 0 0 0 0 0 0 0 0 0 0 0 0 0 0 0 0 0 0 0 0 0 0 0 0
0 0 0 0 0 0 0 0 0 0 0 0 0 0 0 0 0 0 0 0 0 0 0 0 0 0 0 0 0 0 0 0 0 0 0 -0 0 0 -0 -0 -0 -0 0
0 0 0 0 0 0 0 0 0 0 0 0 0 0 0 0 0 0 0 0 0 0 0 0 0 0 0 0 0 0 0 0 0 -0 -0 -0 -0 -0 -0 -0 -0 -0 -0
0 0 0 0 0 0 0 0 -0 -0 -0 -0 -0 -0 0 0 0 0 0 -0 0 0 0 0 0 0 0 0 0 0 0 0 0 -0 -0 -0 -0 -0 -0 -0 -0 -0 -0
0 0 0 0 0 0 0 -0 -0 -0 -0 -0 -0 -0 -0 -0 0 0 -0 0 0 0 0 0 0 0 0 0 0 0 0 0 0 -0 -0 -0 -0 -0 -0 -0 -0 -0 -0
0 0 0 0 0 0 0 0 0 0 0 0 0 0 0 0 -0 -0 0 0 0 0 0 0 0 0 0 0 0 0 0 0 0 0 -0 -0 -0 -0 -0 -0 -0 -0 -0
0 0 0 0 0 0 0 0 0 0 0 0 0 0 0 0 0 0 0 0 0 0 0 0 0 0 0 0 0 0 0 0 0 0 0 0 0 0 0 -0 -0 -0 -0
0 0 0 0 0 0 0 0 0 0 0 0 0 0 0 0 0 0 0 0 0 0 0 0 0 0 0 0 0 0 0 0 0 0 0 0 0 0 -0 -0 -0 -0 -0
0 0 0 0 0 0 -0 0 0 0 0 0 0 0 0 0 0 0 -0 0 0 0 0 0 0 0 0 0 0 0 0 0 0 0 0 0 0 0 0 -0 -0 -0 -0
0 0 -0 0 0 0 -0 0 0 0 0 0 0 0 0 0 0 0 0 0 0 0 0 0 0 0 0 0 0 0 -0 0 0 0 0 0 0 0 0 -0 0 0 0
0 0 0 -0 -0 0 -0 -0 0 0 0 0 0 0 0 0 0 0 0 0 0 0 0 0 0 0 0 0 0 0 0 -0 0 0 0 0 0 0 0 0 -0 0 0
0 0 -0 -0 -0 -0 -0 0 -0 -0 -0 0 0 0 -0 -0 0 0 0 0 0 0 0 0 0 0 0 0 0 0 0 -0 0 0 0 0 -0 0 0 0 0 0 0
Wind_Speed_500mb
17 23 28 30 25 33 36 44 46 39 37 42 48 42 38 38 40 41 38 40 46 46 44 41 47 43 35 29 27 30 34 28 26 30 36 43 45 40 37 36 34 31 30
30 37 20 26 27 36 41 48 43 36 42 48 48 50 52 59 50 47 44 40 40 52 41 40 38 29 28 22 24 27 30 35 32 29 31 39 44 46 44 41 39 38 35
29 20 33 40 42 44 48 45 35 36 45 49 54 57 44 38 35 39 40 40 33 37 51 45 27 23 26 23 25 30 31 32 38 38 34 31 41 43 47 46 45 44 42
9 28 44 44 44 48 46 40 43 46 52 61 65 42 37 43 42 38 34 31 32 33 38 37 27 25 20 28 36 40 45 44 40 41 44 40 35 40 46 49 47 47 47
34 34 34 42 42 50 45 53 48 49 63 57 43 47 57 54 54 48 41 34 22 25 25 26 30 24 23 28 37 42 49 58 53 49 48 48 43 41 42 50 51 51 47
25 23 40 38 51 45 52 54 53 66 58 48 51 59 68 51 46 42 47 45 30 27 21 28 25 27 36 39 40 38 41 42 40 41 46 46 48 44 43 44 49 52 49
31 38 38 50 45 55 63 54 53 62 51 53 55 52 52 39 31 16 20 27 28 29 24 21 22 40 36 41 44 41 46 40 39 42 42 42 40 41 44 42 46 49 49
32 36 40 38 44 58 52 50 54 59 48 36 40 43 32 45 18 5 17 21 9 14 14 17 27 31 42 46 45 44 38 34 37 41 39 38 41 39 37 40 40 47 48
26 27 30 35 50 49 45 46 55 42 40 40 36 31 15 10 41 38 30 12 13 5 11 23 25 31 37 35 35 39 33 30 38 42 38 33 36 41 40 39 40 41 46
31 34 35 43 49 47 47 53 55 34 41 43 33 29 29 34 21 43 35 27 23 19 15 11 12 16 22 24 22 24 27 17 18 21 22 28 35 37 40 41 39 39 42
23 37 43 54 49 47 52 58 39 42 43 44 37 35 34 32 34 27 50 30 15 22 20 17 14 14 20 20 17 14 16 23 27 20 19 22 27 32 38 46 44 41 39
43 50 45 45 51 56 54 49 41 44 40 38 32 29 31 34 36 31 26 42 42 36 29 25 24 24 25 18 17 13 17 17 18 18 20 24 27 31 34 38 48 45 40
42 39 50 47 44 54 48 43 41 42 38 33 32 30 29 29 29 27 28 32 35 38 24 16 14 18 19 14 13 13 12 16 14 16 18 21 24 28 31 34 42 48 42
53 50 48 50 61 50 44 44 43 37 30 30 28 27 27 22 22 24 27 25 25 12 13 3 13 10 10 4 2 6 8 8 10 12 16 20 23 27 31 33 41 42 35
54 56 64 60 48 47 45 41 33 32 33 27 24 22 21 20 19 16 17 17 22 9 5 3 7 10 2 4 3 3 4 1 3 7 11 16 19 8 6 26 38 34 28
56 61 57 48 54 48 47 29 32 28 26 20 17 18 15 13 12 15 18 17 16 17 8 4 8 11 9 7 4 4 14 6 8 6 11 18 17 19 21 20 31 35 32
56 50 47 48 41 37 18 23 24 25 21 20 20 21 16 12 13 10 7 14 15 15 16 8 13 23 20 12 13 14 26 15 30 16 22 26 47 57 57 47 52 52 65
41 37 39 38 28 22 23 25 26 27 26 23 23 20 18 17 17 16 10 4 13 18 19 17 22 33 38 30 47 58 55 52 48 42 39 35 37 36 39 33 34 42 56
33 32 34 32 24 26 24 28 27 29 33 27 28 28 24 21 14 12 16 12 7 19 20 24 35 41 43 42 49 55 57 55 53 45 39 43 44 45 45 43 40 35 33
34 31 28 28 25 25 26 27 28 29 25 27 21 20 23 15 14 13 8 16 22 28 31 35 46 44 37 43 38 42 54 49 57 50 46 44 47 50 50 51 50 48 44
34 34 30 27 27 26 28 30 23 27 25 34 25 23 13 15 20 20 19 23 25 37 31 51 43 37 41 43 31 49 55 54 51 45 44 44 43 48 50 47 44 41 41
37 34 35 31 30 31 28 23 28 30 39 26 27 28 27 22 20 21 21 21 23 25 41 44 45 40 46 58 56 54 57 53 50 29 45 51 44 50 47 45 44 42 37
32 33 32 31 33 28 38 41 25 24 32 27 26 30 27 30 36 33 29 22 26 31 33 31 38 41 51 49 45 39 37 34 35 35 40 52 40 45 42 41 35 32 35
32 32 30 28 29 33 39 40 33 33 31 35 30 33 35 33 31 33 37 35 33 40 31 34 50 64 57 49 43 44 37 39 40 38 37 56 40 46 41 38 31 30 30
31 31 34 30 28 31 40 27 28 35 35 36 38 34 35 32 28 26 27 31 34 41 51 68 60 55 50 47 49 44 34 37 41 36 35 52 42 45 38 35 31 29 31
32 32 36 35 26 26 25 31 33 42 50 47 42 42 38 35 32 33 40 45 57 73 68 57 50 40 36 38 32 30 23 35 43 44 37 49 46 49 45 36 34 34 37
Wind_Direction_500mb
270 297 296 301 294 299 302 302 299 315 309 305 304 302 297 285 275 273 281 293 283 280 287 293 294 290 292 296 282 268 263 265 259 246 239 236 236 233 234 232 230 229 228
289 304 290 304 300 312 307 309 322 315 304 300 299 295 293 290 283 278 276 284 298 285 273 278 274 280 289 287 282 280 271 264 262 258 251 244 240 237 231 234 236 233 231
302 315 314 317 311 317 312 319 324 304 304 301 302 295 310 304 294 277 281 285 284 279 267 272 251 257 253 255 265 273 276 273 263 258 256 252 246 244 235 233 236 237 236
255 304 294 300 304 309 314 311 306 304 304 304 310 312 297 290 290 287 282 281 281 296 257 256 251 257 243 254 266 275 277 274 269 262 253 251 250 245 240 237 237 235 235
296 306 281 299 295 320 317 309 307 309 311 311 311 302 305 301 289 272 268 268 290 282 282 254 258 255 268 282 289 282 278 278 275 265 255 247 249 248 245 239 237 236 235
287 280 301 291 312 315 306 316 315 319 313 310 304 303 304 308 308 290 275 271 274 285 251 248 251 255 267 280 280 275 273 272 264 263 254 246 243 247 245 242 238 236 236
299 300 296 314 316 307 313 313 310 324 310 311 312 315 320 332 321 331 0 275 273 265 251 246 252 270 266 274 281 278 277 265 253 262 252 240 239 242 242 242 237 235 236
282 304 314 311 304 306 300 301 314 317 308 319 321 322 330 340 349 260 22 22 276 250 239 267 263 269 277 282 275 278 275 241 241 249 248 240 234 236 238 235 235 233 232
316 304 300 295 303 296 290 305 313 310 310 310 304 302 323 309 322 299 303 299 358 324 252 266 278 281 290 290 269 263 265 256 254 249 242 240 239 236 236 235 233 234 233
297 289 293 304 304 296 304 313 317 304 305 307 303 289 283 288 313 304 297 285 304 315 304 324 301 306 299 286 278 255 241 251 243 242 237 243 240 236 235 237 237 233 233
292 303 303 300 307 304 309 315 305 308 307 299 293 291 286 285 286 265 291 302 290 285 307 323 322 332 328 285 290 252 241 238 236 241 250 244 242 241 239 237 236 237 234
303 311 315 313 309 309 310 311 305 308 306 298 294 288 283 285 284 271 265 284 300 302 291 286 305 301 301 288 271 258 255 261 256 263 267 261 258 250 246 243 238 236 236
321 316 314 313 310 313 312 313 314 310 303 299 294 293 288 281 275 270 268 280 294 306 321 283 302 292 298 303 276 272 286 280 281 274 274 266 260 255 248 245 234 231 233
325 320 314 311 315 311 315 315 313 307 306 304 298 299 294 286 278 276 270 271 285 279 319 13 291 302 307 306 338 256 262 278 315 319 306 288 279 268 246 238 218 219 224
332 326 319 319 319 321 322 318 322 310 307 304 302 303 298 299 278 269 263 261 255 254 193 51 48 18 73 306 303 38 124 255 360 27 16 15 2 23 226 202 190 184 196
325 325 329 330 322 321 315 312 321 319 316 318 311 315 309 315 298 282 259 253 237 216 201 98 94 153 107 97 46 115 142 163 187 199 29 31 27 88 101 148 178 183 160
330 332 334 339 336 340 356 339 333 339 340 330 325 313 293 285 290 295 272 234 214 205 185 130 157 172 153 197 153 169 152 150 139 123 117 116 97 109 120 123 134 142 153
345 344 349 349 4 1 353 348 347 346 341 328 322 308 294 277 276 270 253 195 230 197 191 181 155 149 136 148 139 127 125 117 111 115 127 121 111 106 103 112 115 118 109
3 6 12 10 13 359 7 353 347 341 331 323 311 298 283 261 253 226 209 178 194 168 184 176 155 140 134 137 128 125 125 120 115 111 103 106 107 105 107 109 116 132 142
26 20 19 12 5 4 3 360 353 353 355 349 347 335 323 218 204 191 196 159 161 155 155 159 147 131 139 125 121 115 111 115 111 112 109 110 110 106 105 105 109 117 122
26 18 15 19 17 13 9 12 355 360 20 10 13 3 41 141 152 132 144 160 154 157 155 152 136 148 142 137 139 127 116 106 103 109 113 111 110 108 106 108 112 117 120
26 30 25 21 17 14 25 6 356 355 354 20 36 55 89 103 137 149 138 134 149 151 149 149 144 141 134 125 121 116 112 105 102 93 117 108 110 106 103 108 109 111 112
25 27 24 24 30 37 18 15 33 31 34 48 68 78 84 99 120 117 123 136 139 109 143 136 131 138 125 120 112 110 116 107 100 113 122 108 110 108 106 105 105 109 120
25 27 22 24 31 31 27 17 40 45 58 63 77 80 87 102 105 113 118 133 133 140 117 138 127 119 114 112 122 119 117 103 98 116 121 106 105 99 100 105 107 107 124
31 31 28 30 37 40 43 60 50 45 71 76 76 85 97 100 102 112 110 117 120 124 121 118 114 114 120 124 123 127 126 115 108 110 117 111 108 102 98 99 103 113 126
32 38 42 37 43 52 62 65 59 61 74 83 83 81 85 94 101 111 117 117 119 123 120 114 104 107 124 133 129 130 132 113 112 117 123 114 115 111 100 97 98 105 114
Wind_Speed_850mb
17 23 28 30 25 33 36 44 46 39 37 42 48 42 38 38 40 41 38 40 46 46 44 41 47 43 35 29 27 30 34 28 26 30 36 43 45 40 37 36 34 31 30
30 37 20 26 27 36 41 48 43 36 42 48 48 50 52 59 50 47 44 40 40 52 41 40 38 29 28 22 24 27 30 35 32 29 31 39 44 46 44 41 39 38 35
29 20 33 40 42 44 48 45 35 36 45 49 54 57 44 38 35 39 40 40 33 37 51 45 27 23 26 23 25 30 31 32 38 38 34 31 41 43 47 46 45 44 42
9 28 44 44 44 48 46 40 43 46 52 61 65 42 37 43 42 38 34 31 32 33 38 37 27 25 20 28 36 40 45 44 40 41 44 40 35 40 46 49 47 47 47
34 34 34 42 42 50 45 53 48 49 63 57 43 47 57 54 54 48 41 34 22 25 25 26 30 24 23 28 37 42 49 58 53 49 48 48 43 41 42 50 51 51 47
25 23 40 38 51 45 52 54 53 66 58 48 51 59 68 51 46 42 47 45 30 27 21 28 25 27 36 39 40 38 41 42 40 41 46 46 48 44 43 44 49 52 49
31 38 38 50 45 55 63 54 53 62 51 53 55 52 52 39 31 16 20 27 28 29 24 21 22 40 36 41 44 41 46 40 39 42 42 42 40 41 44 42 46 49 49
32 36 40 38 44 58 52 50 54 59 48 36 40 43 32 45 18 5 17 21 9 14 14 17 27 31 42 46 45 44 38 34 37 41 39 38 41 39 37 40 40 47 48
26 27 30 35 50 49 45 46 55 42 40 40 36 31 15 10 41 38 30 12 13 5 11 23 25 31 37 35 35 39 33 30 38 42 38 33 36 41 40 39 40 41 46
31 34 35 43 49 47 47 53 55 34 41 43 33 29 29 34 21 43 35 27 23 19 15 11 12 16 22 24 22 24 27 17 18 21 22 28 35 37 40 41 39 39 42
23 37 43 54 49 47 52 58 39 42 43 44 37 35 34 32 34 27 50 30 15 22 20 17 14 14 20 20 17 14 16 23 27 20 19 22 27 32 38 46 44 41 39
43 50 45 45 51 56 54 49 41 44 40 38 32 29 31 34 36 31 26 42 42 36 29 25 24 24 25 18 17 13 17 17 18 18 20 24 27 31 34 38 48 45 40
42 39 50 47 44 54 48 43 41 42 38 33 32 30 29 29 29 27 28 32 35 38 24 16 14 18 19 14 13 13 12 16 14 16 18 21 24 28 31 34 42 48 42
53 50 48 50 61 50 44 44 43 37 30 30 28 27 27 22 22 24 27 25 25 12 13 3 13 10 10 4 2 6 8 8 10 12 16 20 23 27 31 33 41 42 35
54 56 64 60 48 47 45 41 33 32 33 27 24 22 21 20 19 16 17 17 22 9 5 3 7 10 2 4 3 3 4 1 3 7 11 16 19 8 6 26 38 34 28
56 61 57 48 54 48 47 29 32 28 26 20 17 18 15 13 12 15 18 17 16 17 8 4 8 11 9 7 4 4 14 6 8 6 11 18 17 19 21 20 31 35 32
56 50 47 48 41 37 18 23 24 25 21 20 20 21 16 12 13 10 7 14 15 15 16 8 13 23 20 12 13 14 26 15 30 16 22 26 47 57 57 47 52 52 65
41 37 39 38 28 22 23 25 26 27 26 23 23 20 18 17 17 16 10 4 13 18 19 17 22 33 38 30 47 58 55 52 48 42 39 35 37 36 39 33 34 42 56
33 32 34 32 24 26 24 28 27 29 33 27 28 28 24 21 14 12 16 12 7 19 20 24 35 41 43 42 49 55 57 55 53 45 39 43 44 45 45 43 40 35 33
34 31 28 28 25 25 26 27 28 29 25 27 21 20 23 15 14 13 8 16 22 28 31 35 46 44 37 43 38 42 54 49 57 50 46 44 47 50 50 51 50 48 44
34 34 30 27 27 26 28 30 23 27 25 34 25 23 13 15 20 20 19 23 25 37 31 51 43 37 41 43 31 49 55 54 51 45 44 44 43 48 50 47 44 41 41
37 34 35 31 30 31 28 23 28 30 39 26 27 28 27 22 20 21 21 21 23 25 41 44 45 40 46 58 56 54 57 53 50 29 45 51 44 50 47 45 44 42 37
32 33 32 31 33 28 38 41 25 24 32 27 26 30 27 30 36 33 29 22 26 31 33 31 38 41 51 49 45 39 37 34 35 35 40 52 40 45 42 41 35 32 35
32 32 30 28 29 33 39 40 33 33 31 35 30 33 35 33 31 33 37 35 33 40 31 34 50 64 57 49 43 44 37 39 40 38 37 56 40 46 41 38 31 30 30
31 31 34 30 28 31 40 27 28 35 35 36 38 34 35 32 28 26 27 31 34 41 51 68 60 55 50 47 49 44 34 37 41 36 35 52 42 45 38 35 31 29 31
32 32 36 35 26 26 25 31 33 42 50 47 42 42 38 35 32 33 40 45 57 73 68 57 50 40 36 38 32 30 23 35 43 44 37 49 46 49 45 36 34 34 37
Wind_Direction_850mb
270 297 296 301 294 299 302 302 299 315 309 305 304 302 297 285 275 273 281 293 283 280 287 293 294 290 292 296 282 268 263 265 259 246 239 236 236 233 234 232 230 229 228
289 304 290 304 300 312 307 309 322 315 304 300 299 295 293 290 283 278 276 284 298 285 273 278 274 280 289 287 282 280 271 264 262 258 251 244 240 237 231 234 236 233 231
302 315 314 317 311 317 312 319 324 304 304 301 302 295 310 304 294 277 281 285 284 279 267 272 251 257 253 255 265 273 276 273 263 258 256 252 246 244 235 233 236 237 236
255 304 294 300 304 309 314 311 306 304 304 304 310 312 297 290 290 287 282 281 281 296 257 256 251 257 243 254 266 275 277 274 269 262 253 251 250 245 240 237 237 235 235
296 306 281 299 295 320 317 309 307 309 311 311 311 302 305 301 289 272 268 268 290 282 282 254 258 255 268 282 289 282 278 278 275 265 255 247 249 248 245 239 237 236 235
287 280 301 291 312 315 306 316 315 319 313 310 304 303 304 308 308 290 275 271 274 285 251 248 251 255 267 280 280 275 273 272 264 263 254 246 243 247 245 242 238 236 236
299 300 296 314 316 307 313 313 310 324 310 311 312 315 320 332 321 331 0 275 273 265 251 246 252 270 266 274 281 278 277 265 253 262 252 240 239 242 242 242 237 235 236
282 304 314 311 304 306 300 301 314 317 308 319 321 322 330 340 349 260 22 22 276 250 239 267 263 269 277 282 275 278 275 241 241 249 248 240 234 236 238 235 235 233 232
316 304 300 295 303 296 290 305 313 310 310 310 304 302 323 309 322 299 303 299 358 324 252 266 278 281 290 290 269 263 265 256 254 249 242 240 239 236 236 235 233 234 233
297 289 293 304 304 296 304 313 317 304 305 307 303 289 283 288 313 304 297 285 304 315 304 324 301 306 299 286 278 255 241 251 243 242 237 243 240 236 235 237 237 233 233
292 303 303 300 307 304 309 315 305 308 307 299 293 291 286 285 286 265 291 302 290 285 307 323 322 332 328 285 290 252 241 238 236 241 250 244 242 241 239 237 236 237 234
303 311 315 313 309 309 310 311 305 308 306 298 294 288 283 285 284 271 265 284 300 302 291 286 305 301 301 288 271 258 255 261 256 263 267 261 258 250 246 243 238 236 236
321 316 314 313 310 313 312 313 314 310 303 299 294 293 288 281 275 270 268 280 294 306 321 283 302 292 298 303 276 272 286 280 281 274 274 266 260 255 248 245 234 231 233
325 320 314 311 315 311 315 315 313 307 306 304 298 299 294 286 278 276 270 271 285 279 319 13 291 302 307 306 338 256 262 278 315 319 306 288 279 268 246 238 218 219 224
332 326 319 319 319 321 322 318 322 310 307 304 302 303 298 299 278 269 263 261 255 254 193 51 48 18 73 306 303 38 124 255 360 27 16 15 2 23 226 202 190 184 196
325 325 329 330 322 321 315 312 321 319 316 318 311 315 309 315 298 282 259 253 237 216 201 98 94 153 107 97 46 115 142 163 187 199 29 31 27 88 101 148 178 183 160
330 332 334 339 336 340 356 339 333 339 340 330 325 313 293 285 290 295 272 234 214 205 185 130 157 172 153 197 153 169 152 150 139 123 117 116 97 109 120 123 134 142 153
345 344 349 349 4 1 353 348 347 346 341 328 322 308 294 277 276 270 253 195 230 197 191 181 155 149 136 148 139 127 125 117 111 115 127 121 111 106 103 112 115 118 109
3 6 12 10 13 359 7 353 347 341 331 323 311 298 283 261 253 226 209 178 194 168 184 176 155 140 134 137 128 125 125 120 115 111 103 106 107 105 107 109 116 132 142
26 20 19 12 5 4 3 360 353 353 355 349 347 335 323 218 204 191 196 159 161 155 155 159 147 131 139 125 121 115 111 115 111 112 109 110 110 106 105 105 109 117 122
26 18 15 19 17 13 9 12 355 360 20 10 13 3 41 141 152 132 144 160 154 157 155 152 136 148 142 137 139 127 116 106 103 109 113 111 110 108 106 108 112 117 120
26 30 25 21 17 14 25 6 356 355 354 20 36 55 89 103 137 149 138 134 149 151 149 149 144 141 134 125 121 116 112 105 102 93 117 108 110 106 103 108 109 111 112
25 27 24 24 30 37 18 15 33 31 34 48 68 78 84 99 120 117 123 136 139 109 143 136 131 138 125 120 112 110 116 107 100 113 122 108 110 108 106 105 105 109 120
25 27 22 24 31 31 27 17 40 45 58 63 77 80 87 102 105 113 118 133 133 140 117 138 127 119 114 112 122 119 117 103 98 116 121 106 105 99 100 105 107 107 124
31 31 28 30 37 40 43 60 50 45 71 76 76 85 97 100 102 112 110 117 120 124 121 118 114 114 120 124 123 127 126 115 108 110 117 111 108 102 98 99 103 113 126
32 38 42 37 43 52 62 65 59 61 74 83 83 81 85 94 101 111 117 117 119 123 120 114 104 107 124 133 129 130 132 113 112 117 123 114 115 111 100 97 98 105 114